📊 Raw Sensor Data
Showing records 35576 to 35600 of 84,880 total
| ID | Distance (ft) | Battery V | Battery A | Int Temp (°F) | Int Humid (%) | Ext Temp (°F) | Solar V | RSSI | SNR | Time Stamp |
|---|---|---|---|---|---|---|---|---|---|---|
| 49317 | 15.5 | 3.89 | -5 | 63 | 45 | 64 | 0.00 | -68 | 8 | 08/16/2025 12:45 AM |
| 49316 | 15.5 | 3.76 | -5 | 64 | 45 | 64 | 0.10 | -69 | 8 | 08/16/2025 12:30 AM |
| 49315 | 15.5 | 3.77 | -5 | 64 | 45 | 65 | 0.00 | -69 | 8 | 08/16/2025 12:15 AM |
| 49314 | 15.5 | 3.77 | -5 | 64 | 45 | 65 | 0.10 | -69 | 8 | 08/16/2025 12:00 AM |
| 49313 | 15.5 | 3.89 | -5 | 65 | 46 | 65 | 0.00 | -69 | 8 | 08/15/2025 11:45 PM |
| 49312 | 15.5 | 3.77 | -5 | 65 | 46 | 65 | 0.00 | -69 | 8 | 08/15/2025 11:30 PM |
| 49311 | 15.5 | 3.77 | -5 | 65 | 46 | 66 | 0.00 | -68 | 8 | 08/15/2025 11:15 PM |
| 49310 | 15.5 | 3.77 | -5 | 66 | 46 | 67 | 0.00 | -70 | 8 | 08/15/2025 11:00 PM |
| 49309 | 15.5 | 3.89 | -5 | 67 | 47 | 67 | 0.00 | -68 | 8 | 08/15/2025 10:45 PM |
| 49308 | 15.5 | 3.77 | -5 | 67 | 47 | 68 | 0.00 | -69 | 8 | 08/15/2025 10:30 PM |
| 49307 | 15.5 | 3.89 | -5 | 68 | 47 | 68 | 0.00 | -70 | 8 | 08/15/2025 10:15 PM |
| 49306 | 15.8 | 3.78 | -5 | 68 | 48 | 69 | 0.00 | -70 | 7 | 08/15/2025 10:00 PM |
| 49305 | 15.5 | 3.78 | -5 | 69 | 48 | 69 | 0.00 | -71 | 8 | 08/15/2025 09:45 PM |
| 49304 | 15.5 | 3.90 | -5 | 70 | 48 | 70 | 0.10 | -70 | 7 | 08/15/2025 09:30 PM |
| 49303 | 15.5 | 3.78 | -5 | 70 | 49 | 70 | 0.00 | -69 | 8 | 08/15/2025 09:15 PM |
| 49302 | 15.5 | 3.77 | -5 | 71 | 50 | 71 | 0.00 | -69 | 7 | 08/15/2025 09:00 PM |
| 49301 | 15.5 | 3.77 | -5 | 72 | 51 | 72 | 0.00 | -69 | 8 | 08/15/2025 08:45 PM |
| 49300 | 15.5 | 3.78 | -5 | 73 | 52 | 73 | 0.00 | -69 | 8 | 08/15/2025 08:30 PM |
| 49299 | 15.5 | 3.78 | -5 | 75 | 54 | 73 | 0.50 | -69 | 8 | 08/15/2025 08:15 PM |
| 49298 | 15.6 | 3.88 | -10 | 77 | 56 | 74 | 1.60 | -69 | 8 | 08/15/2025 08:00 PM |
| 49297 | 15.6 | 3.80 | 0 | 82 | 55 | 77 | 4.50 | -69 | 8 | 08/15/2025 07:45 PM |
| 49296 | 15.6 | 3.93 | 0 | 86 | 54 | 80 | 4.60 | -71 | 8 | 08/15/2025 07:30 PM |
| 49295 | 15.7 | 3.95 | 6 | 89 | 54 | 83 | 4.50 | -69 | 7 | 08/15/2025 07:15 PM |
| 49294 | 15.8 | 3.95 | 13 | 96 | 52 | 88 | 4.50 | -70 | 8 | 08/15/2025 06:45 PM |
| 49293 | 15.7 | 3.89 | 0 | 99 | 51 | 91 | 5.10 | -71 | 7 | 08/15/2025 06:30 PM |